Dewpoint
70 71 70 70 69 69 69 69 69 70 70 70 70 69 69 69 69 70 70 70 69 69 68 68 67 67 66 66 65 66 65 65
69 70 69 70 71 68 68 68 68 69 69 69 69 68 68 68 68 69 69 69 69 68 67 67 66 66 66 65 65 65 65 65
68 68 68 69 69 70 69 68 68 68 69 68 68 68 68 67 66 68 69 68 68 68 67 66 65 65 65 64 65 64 66 66
66 66 67 67 67 68 70 70 69 70 70 71 70 70 69 66 65 66 68 67 67 67 67 66 65 64 65 65 64 63 64 64
65 65 66 67 67 67 69 68 69 69 69 69 70 69 69 67 66 64 66 67 66 65 66 65 66 65 65 65 64 64 63 64
64 66 66 66 66 66 67 67 67 68 68 70 69 67 67 68 65 65 64 63 66 65 64 67 66 65 65 64 63 63 65 66
63 65 66 65 66 67 68 67 67 67 68 69 69 67 67 67 66 64 62 63 64 64 65 64 64 65 64 63 62 63 64 64
64 64 65 66 65 66 67 67 67 67 67 68 69 68 67 66 66 65 64 63 63 64 64 64 65 64 64 63 62 62 63 63
63 64 65 66 66 66 67 66 67 66 66 67 68 68 68 66 66 65 63 64 65 65 65 63 64 64 63 63 61 62 62 61
55 63 65 65 65 65 66 66 66 66 66 66 67 67 67 67 65 65 65 64 65 65 64 62 63 63 63 62 60 61 61 61
44 61 65 65 66 65 66 66 66 66 66 66 67 68 68 67 66 66 65 64 64 64 64 63 61 63 62 62 61 59 62 62
43 47 62 65 66 66 66 66 66 66 66 65 66 65 68 68 67 66 65 64 64 64 63 62 62 62 61 61 61 61 62 62
43 43 53 65 65 65 64 63 65 66 66 65 64 65 66 67 66 66 65 64 63 63 62 61 61 62 61 61 60 61 61 62
45 44 46 59 63 64 65 64 64 65 65 65 64 65 65 66 66 66 65 65 63 63 62 61 61 62 60 58 56 57 59 59
43 47 48 53 64 65 66 66 66 64 64 64 65 64 65 65 65 66 65 64 63 63 63 62 60 61 61 58 54 54 56 58
51 54 55 52 65 65 64 63 61 63 65 65 66 66 66 66 66 65 65 64 64 63 64 63 61 59 61 60 58 56 52 53
55 59 61 59 63 65 64 63 65 65 65 66 66 67 66 66 65 65 65 64 64 64 63 62 62 61 60 60 58 56 56 53
58 58 58 61 62 63 64 64 60 61 61 63 64 64 65 65 65 65 65 64 64 64 63 62 62 62 61 61 59 56 54 54
55 55 53 54 58 59 60 61 60 60 60 61 61 62 62 63 65 64 65 64 64 64 63 62 62 61 61 61 62 59 58 56
49 48 49 50 52 52 53 55 57 57 58 59 61 62 62 62 61 62 64 64 64 64 63 62 62 62 61 61 61 62 61 56
Lifted_Index
-5 -5 -5 -4 -4 -4 -3 -3 -3 -4 -4 -4 -4 -3 -2 -2 -2 -3 -3 -3 -2 -2 -2 -1 -1 -1 -1 -1 -1 -2 -3 -3
-4 -4 -4 -5 -5 -4 -4 -3 -3 -3 -4 -4 -4 -3 -2 -2 -2 -2 -2 -2 -2 -2 -2 -1 -1 -1 -1 -1 -1 -2 -2 -3
-3 -3 -4 -4 -5 -5 -4 -4 -4 -4 -4 -4 -4 -3 -3 -2 -1 -1 -2 -2 -2 -2 -1 -1 -1 -1 -1 -1 -2 -2 -2 -2
-3 -3 -3 -3 -4 -5 -5 -5 -4 -4 -4 -4 -4 -4 -3 -2 -1 -1 -1 -2 -1 -1 -1 -1 -1 -2 -2 -2 -2 -2 -2 -2
-2 -2 -3 -3 -4 -5 -5 -5 -5 -5 -5 -5 -4 -4 -3 -2 -2 -1 -1 -1 -1 -1 -1 -2 -2 -2 -2 -2 -2 -2 -2 -2
-3 -3 -3 -3 -4 -4 -5 -5 -5 -5 -5 -5 -5 -4 -4 -3 -2 -1 -0 -0 -1 -1 -1 -2 -2 -2 -2 -2 -1 -1 -1 -1
-3 -3 -3 -3 -4 -4 -5 -5 -5 -5 -5 -5 -5 -5 -4 -4 -3 -1 -0 -0 -1 -1 -1 -1 -1 -2 -2 -1 -1 -1 -1 -0
-4 -4 -4 -4 -4 -4 -5 -5 -5 -5 -5 -5 -5 -5 -4 -4 -3 -2 -1 -1 -1 -1 -1 -1 -1 -1 -1 -1 -1 -0 0 1
-4 -4 -5 -5 -4 -4 -5 -5 -5 -5 -5 -5 -5 -5 -5 -4 -4 -3 -3 -2 -1 -1 -1 -0 -1 -1 -1 -1 -1 -0 1 1
-1 -3 -5 -5 -5 -5 -5 -5 -5 -5 -5 -5 -5 -6 -6 -5 -5 -4 -4 -3 -2 -2 -1 -0 -1 -1 -1 -1 -1 -1 0 1
3 -0 -4 -5 -5 -5 -5 -5 -5 -6 -5 -5 -5 -6 -6 -6 -5 -4 -4 -4 -3 -2 -2 -1 -1 -1 -1 -1 -1 -1 -1 -0
6 3 -1 -4 -6 -6 -5 -5 -5 -5 -5 -5 -5 -6 -6 -6 -5 -4 -4 -4 -4 -3 -3 -2 -1 -1 -1 -0 -0 -0 -1 -1
7 6 2 -3 -6 -6 -6 -5 -5 -5 -5 -5 -5 -4 -5 -5 -5 -4 -4 -4 -4 -3 -3 -3 -2 -1 -1 -0 -0 -0 -0 -0
6 6 3 -1 -5 -6 -6 -6 -5 -5 -5 -5 -4 -4 -4 -4 -4 -4 -4 -3 -3 -4 -3 -3 -2 -2 -1 -1 -1 -0 -0 -0
5 4 3 -0 -4 -6 -6 -6 -6 -6 -6 -5 -5 -4 -4 -4 -4 -4 -3 -3 -3 -4 -3 -3 -2 -2 -1 -1 -1 -1 -0 0
3 2 1 -1 -4 -6 -6 -6 -7 -7 -6 -6 -5 -5 -4 -4 -4 -3 -3 -3 -3 -4 -4 -3 -3 -2 -1 -1 -1 -1 -0 -0
1 -0 -2 -3 -5 -6 -6 -6 -6 -6 -6 -6 -5 -5 -5 -4 -4 -3 -3 -3 -3 -4 -4 -4 -3 -2 -1 -1 -1 -1 -1 -1
-1 -2 -3 -4 -5 -6 -6 -6 -5 -4 -4 -4 -4 -4 -5 -5 -4 -4 -3 -3 -4 -4 -4 -3 -3 -2 -2 -1 -1 -1 -2 -2
-2 -2 -3 -4 -4 -5 -5 -4 -3 -3 -3 -3 -3 -4 -4 -5 -5 -4 -4 -4 -4 -4 -4 -3 -3 -2 -2 -2 -2 -2 -2 -2
-2 -2 -3 -3 -3 -4 -4 -3 -2 -2 -2 -2 -3 -3 -4 -4 -4 -4 -4 -4 -4 -4 -3 -3 -3 -2 -2 -2 -2 -2 -2 -2